Tracking 28790 objects as of 19-Apr-2024
HD Live streaming from Space Station
objects crossing your sky now

COSMOS 726

Track COSMOS 726 now!
10-day predictions
COSMOS 726 is classified as:


NORAD ID: 7736
Int'l Code: 1975-028A
Perigee: 956.9 km
Apogee: 997.0 km
Inclination: 83.0 °
Period: 104.5 minutes
Semi major axis: 7347 km
RCS: 3.659 m2 (large)
Launch date: April 11, 1975
Source: Commonwealth of Independent States (former USSR) (CIS)
Launch site: PLESETSK MISSILE AND SPACE COMPLEX (PKMTR)
Your satellite tracking list
Your tracking list is empty




NASA's NSSDC Master Catalog

Two Line Element Set (TLE):
1 07736U 75028A   24109.96272562  .00000157  00000-0  13977-3 0  9993
2 07736  82.9926  85.5650 0027248 102.9903 257.4300 13.78329545464964
Source of the keplerian elements: AFSPC